Regional Weather Roundup
Issued by NWS

Home | Current Version | Previous Version | Graphics & Text | Print | Product List | Glossary On
Versions: 1 2 3 4 5 6 7 8 9 10 11 12 13 14 15 16 17 18 19 20 21 22 23 24 25 26 27 28 29 30 31 32 33 34 35 36 37 38 39 40 41 42 43 44 45 46 47 48 49 50
000
ASUS43 KLMK 301902
RWRKY
KENTUCKY REGIONAL WEATHER ROUNDUP
NATIONAL WEATHER SERVICE LOUISVILLE KY
200 PM EST FRI JAN 30 2015

NOTE "FAIR" INDICATES FEW OR NO CLOUDS BELOW 12,000 FEET
WITH NO SIGNIFICANT WEATHER AND/OR OBSTRUCTIONS TO VISIBILITY.

KYZ001>023-026-027-061>063-070>075-302000-
WESTERN AND SOUTH CENTRAL KENTUCKY

CITY           SKY/WX    TMP DP  RH WIND       PRES   REMARKS
PADUCAH        SUNNY     44  22  41 NE7       30.48F
HENDERSON      SUNNY     37  19  48 N7        30.48F WCI  32
OWENSBORO      SUNNY     39  22  51 N7        30.47F WCI  34
HOPKINSVILLE   SUNNY     41  22  46 NE5       30.45F
BOWLING GREEN  SUNNY     42  20  41 N7        30.44F
GLASGOW        NOT AVBL
$$

KYZ024-025-028>034-038-045-046-053-302000-
NORTH CENTRAL KENTUCKY

CITY           SKY/WX    TMP DP  RH WIND       PRES   REMARKS
LOUISVILLE/SDF MOSUNNY   39  16  39 N10       30.45F WCI  32
LOUISVILLE/LOU SUNNY     37  15  40 N8        30.46F WCI  31
FORT KNOX      MOSUNNY   37  20  50 NW8       30.42F WCI  31
$$

KYZ035>037-039>044-047>052-055>060-089>105-302000-
NORTHEAST KENTUCKY

CITY           SKY/WX    TMP DP  RH WIND       PRES   REMARKS
LEXINGTON      MOSUNNY   35  15  44 NW9       30.42F WCI  28
COVINGTON      PTSUNNY   29  14  53 N10       30.44S WCI  20
FRANKFORT      MOSUNNY   35  15  44 NW8       30.42F WCI  29
$$

KYZ054-064>069-076>088-106>120-302000-
SOUTHEAST KENTUCKY

CITY           SKY/WX    TMP DP  RH WIND       PRES   REMARKS
JACKSON        MOSUNNY   33  16  49 VRB7G17   30.36S WCI  27
LONDON         MOSUNNY   38  17  42 NW14G21   30.37F WCI  30
SOMERSET       NOT AVBL
MIDDLESBORO    NOT AVBL
MONTICELLO     PTCLDY    39  22  51 N14       30.42F WCI  31
$$



USA.gov is the U.S. government's official web portal to all federal, state and local government web resources and services.